This demonstration page uses our WeatherBlox Daily Observations layout. Learn more.

Left ArrowRight Arrow

39.01783, -85.05884

Hourly Observations for February 20, 2021

Temp ( °F °C ) Dew Point ( °F °C ) Humidity (%) Winds ( mph kmh ) Pressure ( in mb ) Visibility ( mi km ) Precip ( " mm )
12:52 am 00:52 Hazy 9 -12.8 4 -15.6 80 80 SSW 5 7 30.39 1029 6 10 0.00 0.00
1:52 am 01:52 Clear 11 -11.7 5 -15 77 77 W 6 9 30.38 1029 7 11 0.00 0.00
2:52 am 02:52 Partly Cloudy 11 -11.7 6 -14.4 81 81 SW 6 9 30.40 1029 7 11 0.00 0.00
3:52 am 03:52 Cloudy 14 -10 7 -13.9 73 73 WSW 6 9 30.38 1029 7 11 0.00 0.00
4:52 am 04:52 Cloudy 14 -10 8 -13.3 77 77 SSW 6 9 30.39 1029 7 11 0.00 0.00
5:52 am 05:52 Cloudy 15 -9.4 8 -13.3 74 74 SW 5 7 30.40 1029 7 11 0.00 0.00
6:52 am 06:52 Cloudy 16 -8.9 9 -12.8 74 74 SW 7 11 30.40 1029 7 11 0.00 0.00
7:52 am 07:52 Cloudy with Haze 16 -8.9 9 -12.8 74 74 SW 8 13 30.42 1030 5 8 0.00 0.00
8:52 am 08:52 Cloudy with Haze 17 -8.3 10 -12.2 74 74 SW 8 13 30.44 1031 6 10 0.00 0.00
9:52 am 09:52 Cloudy 20 -6.7 11 -11.7 68 68 VRB 6 9 30.45 1031 7 11 0.00 0.00
10:52 am 10:52 Partly Cloudy 22 -5.6 13 -10.6 68 68 SE 5 7 30.44 1031 7 11 0.00 0.00
11:52 am 11:52 Partly Cloudy 28 -2.2 12 -11.1 51 51 WSW 5 7 30.45 1031 10 16 0.00 0.00
12:52 pm 12:52 Partly Cloudy 29 -1.7 12 -11.1 49 49 VRB 7 11 30.44 1031 10 16 0.00 0.00
1:52 pm 13:52 Partly Cloudy 31 -0.6 13 -10.6 47 47 WNW 9 15 30.42 1030 10 16 0.00 0.00
2:52 pm 14:52 Partly Cloudy 31 -0.6 12 -11.1 45 45 W 6 9 30.42 1030 10 16 0.00 0.00
3:52 pm 15:52 Mostly Sunny 31 -0.6 11 -11.7 43 43 WSW 7 11 30.41 1030 10 16 0.00 0.00
4:52 pm 16:52 Sunny 30 -1.1 11 -11.7 45 45 SW 3 6 30.40 1030 10 16 0.00 0.00
5:52 pm 17:52 Mostly Sunny 29 -1.7 11 -11.7 47 47 SSE 5 7 30.41 1030 10 16 0.00 0.00
6:52 pm 18:52 Partly Cloudy 27 -2.8 12 -11.1 53 53 S 5 7 30.43 1030 10 16 0.00 0.00
7:52 pm 19:52 Clear 25 -3.9 12 -11.1 58 58 S 5 7 30.45 1031 10 16 0.00 0.00
8:52 pm 20:52 Clear 24 -4.4 11 -11.7 57 57 S 6 9 30.45 1031 10 16 0.00 0.00
9:52 pm 21:52 Clear 22 -5.6 11 -11.7 63 63 S 7 11 30.46 1032 10 16 0.00 0.00
10:52 pm 22:52 Clear 22 -5.6 12 -11.1 66 66 S 6 9 30.46 1031 9 14 0.00 0.00
11:52 pm 23:52 Clear 20 -6.7 13 -10.6 74 74 SSE 6 9 30.45 1031 8 13 0.00 0.00

Powered by AerisWeather